Location: Milton
(43.5183°N, 79.8775°W)
Time: 07:57:07
(UTC+00:00)

UNISAT 6 - Pass Details

Date: 21 March 2023
Orbit: 599 x 680 km, 97.7° (Epoch: 02 June)

Event Time Altitude Azimuth Distance (km) Brightness Sun altitude
Rises 08:57:46 0° 126° (SE) 2,868 ? -25.9°
Reaches altitude 10° 09:00:26 10° 108° (ESE) 1,981 ? -25.5°
Maximum altitude 09:03:26 19° 64° (ENE) 1,508 ? -25.0°
Drops below altitude 10° 09:06:29 10° 20° (NNE) 2,024 ? -24.5°
Sets 09:09:14 0° 3° (N) 2,955 ? -24.0°
